Location: Torrington
(42.0650°N, 104.1810°W)
Time: 04:10:29
(UTC-06:00)

Amateur Radio Satellites - All Passes

Search period start: 16 April 2014 03:40
Search period end: 17 April 2014 03:40
Location: Torrington, 42.0650°N, 104.1810°W

Satellite Date Start Highest point End Downlink Frequencies (MHz)
Time Altitude Azimuth
AO-27 16 Apr 03:45:14 03:50:13 50° 289° (WNW) 03:55:11 436.795 MHz FM
Sapphire 16 Apr 03:51:09 03:54:24 16° 320° (NW) 03:57:40 437.095 MHz 1200 baud AX-25 AFSK
ITAMSAT 1 16 Apr 03:57:06 04:01:54 40° 291° (WNW) 04:06:41 435.822 SSB
TMSAT-1 16 Apr 04:06:27 04:11:42 59° 101° (E) 04:16:54 436.925 FM
Oscar 19 16 Apr 04:11:44 04:15:04 18° 299° (WNW) 04:18:25 437.125 CW, 437.150 USB
Oscar 16 16 Apr 04:19:53 04:22:32 14° 301° (WNW) 04:25:10 437.025 USB, Beacon 2401.1428
AO-Echo 16 Apr 04:43:46 04:46:54 18° 298° (WNW) 04:49:59 ?
Uribyol 2 16 Apr 04:48:04 04:50:51 15° 301° (WNW) 04:53:37 436.500 FM
Gurwin Techsat 1B 16 Apr 04:55:58 05:00:48 37° 292° (WNW) 05:05:38 435.225 FM
Uosat F 16 Apr 04:57:18 05:02:17 66° 102° (ESE) 05:07:14 435.120 FM
AO-7 16 Apr 05:00:05 05:07:59 45° 100° (E) 05:15:50 29.400 - 29.500 MHz
KITSAT 1 16 Apr 05:02:11 05:10:02 51° 309° (NW) 05:17:56 435.175 FM
UOSAT-12 16 Apr 05:19:46 05:21:30 12° 253° (WSW) 05:23:14 437.025 FM, 437.400 FM
JAS-1B 16 Apr 05:20:03 05:25:47 77° 287° (WNW) 05:31:32 435.800 - 435.900 CW/SSB
STRAND 1 16 Apr 05:35:43 05:39:25 21° 63° (ENE) 05:43:07 ?
AO-40 16 Apr 05:43:24 11:07:31 35° 179° (S) 15:31:02 Beacon 2401.320
TMSAT-1 16 Apr 05:47:30 05:51:09 19° 298° (WNW) 05:54:47 436.925 FM
RS-15 16 Apr 05:57:07 06:04:35 21° 100° (E) 06:11:51 29.354 - 29.394 USB, Beacon 29.352 USB
Uosat F 16 Apr 06:37:32 06:40:32 16° 299° (WNW) 06:43:32 435.120 FM
AO-7 16 Apr 06:53:01 07:00:42 44° 299° (WNW) 07:08:23 29.400 - 29.500 MHz
Hamsat 16 Apr 06:55:48 07:00:01 48° 99° (E) 07:04:14 145.90 MHz
KITSAT 1 16 Apr 07:02:33 07:07:38 17° 335° (NNW) 07:12:43 435.175 FM
STRAND 1 16 Apr 07:13:14 07:18:13 52° 260° (W) 07:23:14 ?
JAS-1B 16 Apr 07:14:30 07:15:25 10° 307° (NW) 07:16:20 435.800 - 435.900 CW/SSB
JAS-2 16 Apr 07:29:30 07:34:18 33° 97° (E) 07:39:26 435.800 - 435.900 CW/SSB, 435.910 FM
MaSat-1 16 Apr 07:32:13 07:34:47 30° 61° (ENE) 07:37:44 437.345 MHz
SO-67 16 Apr 07:38:09 07:41:04 24° 95° (E) 07:43:57 435.3500 MHz FM
RS-15 16 Apr 08:03:55 08:15:17 85° 120° (ESE) 08:26:17 29.354 - 29.394 USB, Beacon 29.352 USB
Hamsat 16 Apr 08:32:54 08:35:37 17° 295° (WNW) 08:38:20 145.90 MHz
AO-7 16 Apr 08:50:51 08:51:19 10° 321° (NW) 08:51:46 29.400 - 29.500 MHz
KITSAT 1 16 Apr 09:04:13 09:07:12 12° 6° (N) 09:10:10 435.175 FM
Sapphire 16 Apr 09:10:06 09:13:33 17° 40° (NE) 09:16:59 437.095 MHz 1200 baud AX-25 AFSK
SO-67 16 Apr 09:11:30 09:14:05 20° 291° (WNW) 09:16:40 435.3500 MHz FM
MaSat-1 16 Apr 09:11:52 09:13:06 12° 251° (WSW) 09:14:24 437.345 MHz
JAS-2 16 Apr 09:14:47 09:19:23 32° 292° (WNW) 09:24:18 435.800 - 435.900 CW/SSB, 435.910 FM
HO-68 16 Apr 09:29:54 09:36:25 36° 97° (E) 09:42:54 435.675 MHz FM
PCSat 16 Apr 09:54:32 09:59:28 34° 51° (NE) 10:04:22 145.825 MHz
Oscar 11 16 Apr 09:56:13 09:59:32 21° 94° (E) 10:02:50 145.825 FM, Beacon 2401.500 USB
RS-15 16 Apr 10:19:06 10:28:59 35° 326° (NNW) 10:38:44 29.354 - 29.394 USB, Beacon 29.352 USB
Sapphire 16 Apr 10:52:20 10:57:47 87° 61° (ENE) 11:03:12 437.095 MHz 1200 baud AX-25 AFSK
KITSAT 1 16 Apr 10:59:39 11:06:10 25° 36° (NE) 11:12:37 435.175 FM
FUNcube-1 16 Apr 11:11:19 11:15:21 43° 99° (E) 11:19:27 145.950 - 145.970 MHz USB
HO-68 16 Apr 11:17:28 11:24:12 46° 295° (WNW) 11:30:56 435.675 MHz FM
Oscar 11 16 Apr 11:31:51 11:35:49 35° 290° (WNW) 11:39:46 145.825 FM, Beacon 2401.500 USB
Saudisat 1A 16 Apr 11:33:10 11:36:59 28° 114° (ESE) 11:40:49 436.775 MHz
PCSat 16 Apr 11:37:56 11:42:54 37° 249° (WSW) 11:47:50 145.825 MHz
Oscar 19 16 Apr 12:12:39 12:14:57 13° 59° (ENE) 12:17:16 437.125 CW, 437.150 USB
Oscar 16 16 Apr 12:19:22 12:22:28 16° 61° (ENE) 12:25:35 437.025 USB, Beacon 2401.1428
RS-15 16 Apr 12:38:04 12:45:56 21° 1° (N) 12:53:47 29.354 - 29.394 USB, Beacon 29.352 USB
Sapphire 16 Apr 12:38:12 12:40:24 13° 258° (WSW) 12:42:36 437.095 MHz 1200 baud AX-25 AFSK
AO-Echo 16 Apr 12:42:55 12:43:57 11° 58° (ENE) 12:44:58 ?
PANSAT 16 Apr 12:46:17 12:47:01 10° 184° (S) 12:47:44 not established
Uribyol 2 16 Apr 12:48:24 12:51:31 16° 60° (ENE) 12:54:38 436.500 FM
FUNcube-1 16 Apr 12:48:42 12:51:29 17° 295° (WNW) 12:54:17 145.950 - 145.970 MHz USB
KITSAT 1 16 Apr 12:54:36 13:02:45 86° 59° (ENE) 13:10:50 435.175 FM
Saudisat 1A 16 Apr 13:12:25 13:16:30 34° 312° (NW) 13:20:36 436.775 MHz
AO-27 16 Apr 13:25:02 13:29:38 33° 67° (ENE) 13:34:14 436.795 MHz FM
ITAMSAT 1 16 Apr 13:36:22 13:41:11 41° 69° (ENE) 13:46:01 435.822 SSB
Oscar 19 16 Apr 13:48:25 13:53:33 86° 256° (WSW) 13:58:45 437.125 CW, 437.150 USB
TMSAT-1 16 Apr 13:51:19 13:53:48 14° 59° (ENE) 13:56:17 436.925 FM
Oscar 16 16 Apr 13:56:09 14:01:15 68° 258° (WSW) 14:06:25 437.025 USB, Beacon 2401.1428
AO-7 16 Apr 14:12:04 14:16:15 15° 45° (NE) 14:20:26 29.400 - 29.500 MHz
AO-Echo 16 Apr 14:16:36 14:21:52 76° 75° (ENE) 14:27:02 ?
JAS-1B 16 Apr 14:16:48 14:21:57 19° 59° (ENE) 14:26:36 435.800 - 435.900 CW/SSB
Uribyol 2 16 Apr 14:25:17 14:30:26 69° 258° (WSW) 14:35:35 436.500 FM
Uosat F 16 Apr 14:35:48 14:37:55 13° 58° (ENE) 14:40:02 435.120 FM
Gurwin Techsat 1B 16 Apr 14:37:37 14:42:41 47° 70° (ENE) 14:47:45 435.225 FM
KITSAT 1 16 Apr 14:51:41 14:57:07 20° 258° (WSW) 15:02:32 435.175 FM
RS-15 16 Apr 14:52:50 15:02:44 37° 35° (NE) 15:12:42 29.354 - 29.394 USB, Beacon 29.352 USB
AO-27 16 Apr 15:04:32 15:09:07 31° 264° (W) 15:13:43 436.795 MHz FM
OPAL 16 Apr 15:11:54 15:16:41 36° 99° (E) 15:21:26 ?
ITAMSAT 1 16 Apr 15:16:34 15:20:48 25° 266° (W) 15:25:03 435.822 SSB
TMSAT-1 16 Apr 15:27:41 15:32:59 87° 257° (WSW) 15:38:19 436.925 FM
AO-Echo 16 Apr 15:58:36 16:01:08 14° 270° (W) 16:03:39 ?
AO-7 16 Apr 15:59:19 16:07:25 62° 66° (ENE) 16:15:33 29.400 - 29.500 MHz
JAS-1B 16 Apr 16:03:28 16:11:57 88° 255° (WSW) 16:19:00 435.800 - 435.900 CW/SSB
ISS 16 Apr 16:09:33 16:12:22 25° 135° (SE) 16:15:12 145.800 FM
Uosat F 16 Apr 16:10:57 16:15:59 86° 256° (WSW) 16:21:03 435.120 FM
Gurwin Techsat 1B 16 Apr 16:18:46 16:22:52 22° 267° (W) 16:26:59 435.225 FM
SO-50 16 Apr 16:47:59 16:52:28 88° 122° (ESE) 16:57:00 436.795 FM
OPAL 16 Apr 16:50:56 16:55:26 30° 296° (WNW) 16:59:57 ?
RS-15 16 Apr 17:05:16 17:16:13 79° 241° (WSW) 17:27:26 29.354 - 29.394 USB, Beacon 29.352 USB
TMSAT-1 16 Apr 17:12:59 17:13:38 10° 273° (W) 17:14:17 436.925 FM
JAS-2 16 Apr 17:44:45 17:48:03 16° 61° (ENE) 17:51:13 435.800 - 435.900 CW/SSB, 435.910 FM
ISS 16 Apr 17:45:47 17:49:00 43° 332° (NNW) 17:52:14 145.800 FM
Hamsat 16 Apr 17:49:55 17:53:44 36° 71° (ENE) 17:57:37 145.90 MHz
UOSAT-12 16 Apr 17:50:00 17:53:27 22° 111° (ESE) 17:56:57 437.025 FM, 437.400 FM
AO-7 16 Apr 17:53:41 18:00:39 30° 265° (W) 18:07:41 29.400 - 29.500 MHz
JAS-1B 16 Apr 17:58:14 18:03:03 17° 269° (W) 18:07:29 435.800 - 435.900 CW/SSB
SO-67 16 Apr 18:15:13 18:15:28 10° 64° (ENE) 18:15:43 435.3500 MHz FM
SO-50 16 Apr 18:31:02 18:33:41 15° 322° (NW) 18:36:21 436.795 FM
RS-15 16 Apr 19:20:11 19:26:43 18° 261° (W) 19:33:22 29.354 - 29.394 USB, Beacon 29.352 USB
STRAND 1 16 Apr 19:23:20 19:28:18 50° 100° (E) 19:33:14 ?
ISS 16 Apr 19:24:04 19:26:24 17° 352° (N) 19:28:44 145.800 FM
JAS-2 16 Apr 19:26:37 19:32:40 76° 257° (WSW) 19:38:07 435.800 - 435.900 CW/SSB, 435.910 FM
Hamsat 16 Apr 19:26:50 19:29:51 19° 267° (W) 19:32:54 145.90 MHz
UOSAT-12 16 Apr 19:28:54 19:33:17 45° 309° (NW) 19:37:47 437.025 FM, 437.400 FM
SO-67 16 Apr 19:44:46 19:48:10 52° 260° (W) 19:51:36 435.3500 MHz FM
Saudisat 1A 16 Apr 19:59:18 20:03:09 28° 46° (NE) 20:06:57 436.775 MHz
HO-68 16 Apr 19:59:31 20:05:28 30° 60° (ENE) 20:11:25 435.675 MHz FM
Oscar 11 16 Apr 20:52:21 20:55:19 19° 65° (ENE) 20:58:18 145.825 FM, Beacon 2401.500 USB
ISS 16 Apr 21:01:36 21:04:05 19° 12° (NNE) 21:06:35 145.800 FM
STRAND 1 16 Apr 21:03:24 21:07:08 21° 297° (WNW) 21:10:51 ?
MaSat-1 16 Apr 21:37:43 21:39:13 13° 110° (ESE) 21:40:39 437.345 MHz
Saudisat 1A 16 Apr 21:38:47 21:42:47 34° 244° (WSW) 21:46:44 436.775 MHz
HO-68 16 Apr 21:45:46 21:52:45 58° 258° (WSW) 21:59:48 435.675 MHz FM
FUNcube-1 16 Apr 22:08:36 22:12:29 36° 71° (ENE) 22:16:20 145.950 - 145.970 MHz USB
Oscar 11 16 Apr 22:27:08 22:31:13 41° 262° (W) 22:35:19 145.825 FM, Beacon 2401.500 USB
ISS 16 Apr 22:38:01 22:41:22 60° 31° (NNE) 22:44:41 145.800 FM
MaSat-1 16 Apr 23:15:13 23:17:32 21° 301° (WNW) 23:19:40 437.345 MHz
SO-50 16 Apr 23:39:56 23:42:39 15° 38° (NE) 23:45:22 436.795 FM
FUNcube-1 16 Apr 23:46:03 23:49:02 19° 267° (W) 23:52:01 145.950 - 145.970 MHz USB
ISS 17 Apr 00:15:32 00:17:49 17° 228° (SW) 00:20:05 145.800 FM
PCSat 17 Apr 00:37:26 00:41:52 26° 108° (ESE) 00:46:19 145.825 MHz
SO-50 17 Apr 01:19:14 01:23:54 87° 57° (ENE) 01:28:37 436.795 FM
Sapphire 17 Apr 01:34:19 01:39:42 76° 117° (ESE) 01:45:08 437.095 MHz 1200 baud AX-25 AFSK
AO-27 17 Apr 01:40:29 01:41:20 10° 88° (E) 01:42:11 436.795 MHz FM
ITAMSAT 1 17 Apr 01:50:26 01:52:57 14° 90° (E) 01:55:27 435.822 SSB
Oscar 10/S400 17 Apr 01:52:53 02:07:24 20° 128° (SE) 02:34:51 145.825 - 145.975 CW/USB, Beacon 145.810 USB
Oscar 19 17 Apr 01:59:57 02:04:37 33° 96° (E) 02:09:16 437.125 CW, 437.150 USB
Oscar 16 17 Apr 02:07:33 02:12:28 41° 98° (E) 02:17:22 437.025 USB, Beacon 2401.1428
UOSAT-12 17 Apr 02:18:18 02:22:15 25° 44° (NE) 02:26:10 437.025 FM, 437.400 FM
PCSat 17 Apr 02:19:50 02:25:01 46° 306° (NW) 02:30:14 145.825 MHz
AO-Echo 17 Apr 02:24:35 02:28:18 22° 93° (E) 02:31:56 ?
OPAL 17 Apr 02:27:14 02:32:11 66° 71° (ENE) 02:37:14 ?
Uribyol 2 17 Apr 02:37:44 02:42:37 41° 98° (E) 02:47:29 436.500 FM
Gurwin Techsat 1B 17 Apr 02:54:23 02:57:58 18° 91° (E) 03:01:31 435.225 FM
SO-50 17 Apr 03:02:39 03:03:47 11° 253° (WSW) 03:04:56 436.795 FM
AO-27 17 Apr 03:16:20 03:21:33 90° 104° (ESE) 03:26:43 436.795 MHz FM
Sapphire 17 Apr 03:19:49 03:23:44 20° 317° (NW) 03:27:40 437.095 MHz 1200 baud AX-25 AFSK
KITSAT 1 17 Apr 03:22:48 03:30:41 59° 114° (ESE) 03:38:37 435.175 FM
ITAMSAT 1 17 Apr 03:27:49 03:32:59 73° 286° (WNW) 03:38:08 435.822 SSB
